| time (UTC) | temp F | wind direction | speed MPH | gust MPH | rain 1hr in | rain 24hr in | rain mn in | humidity % | barometer mb |
| 20260507221544 | 60 | 37 | 1.0 | 6.0 | 0.00 | 0.16 | 0.00 | 88 | 1009.6 |
| 20260507220042 | 61 | 62 | 0.0 | 12.0 | 0.00 | 0.16 | 0.00 | 87 | 1009.0 |
| 20260507214545 | 61 | 346 | 3.0 | 11.0 | 0.00 | 0.16 | 0.00 | 85 | 1008.7 |
| 20260507213048 | 63 | 20 | 0.0 | 11.0 | 0.00 | 0.16 | 0.00 | 85 | 1007.8 |
| 20260507211556 | 65 | 85 | 3.0 | 14.0 | 0.00 | 0.16 | 0.00 | 79 | 1007.7 |
| 20260507210049 | 67 | 30 | 3.0 | 12.0 | 0.00 | 0.16 | 0.00 | 78 | 1008.0 |
| 20260507204548 | 70 | 280 | 1.0 | 12.0 | 0.00 | 0.16 | 0.00 | 75 | 1007.7 |
| 20260507203043 | 77 | 0 | 0.0 | 4.0 | 0.00 | 0.16 | 0.00 | 67 | 1007.4 |
| 20260507201544 | 76 | 206 | 2.0 | 5.0 | 0.00 | 0.16 | 0.00 | 66 | 1007.0 |
| 20260507200045 | 77 | 147 | 2.0 | 8.0 | 0.00 | 0.16 | 0.00 | 62 | 1007.1 |
| 20260507194544 | 76 | 233 | 2.0 | 6.0 | 0.00 | 0.16 | 0.00 | 67 | 1007.5 |
| 20260507193053 | 75 | 194 | 2.0 | 8.0 | 0.00 | 0.16 | 0.00 | 73 | 1007.5 |
| 20260507191544 | 74 | 270 | 3.0 | 7.0 | 0.00 | 0.16 | 0.00 | 73 | 1007.7 |
| 20260507190047 | 74 | 140 | 3.0 | 7.0 | 0.00 | 0.16 | 0.00 | 74 | 1007.9 |
| 20260507184538 | 73 | 260 | 1.0 | 5.0 | 0.00 | 0.16 | 0.00 | 76 | 1007.9 |
| 20260507183049 | 73 | 146 | 2.0 | 6.0 | 0.00 | 0.16 | 0.00 | 76 | 1007.9 |
| 20260507181549 | 71 | 103 | 1.0 | 5.0 | 0.00 | 0.16 | 0.00 | 79 | 1008.3 |
| 20260507180044 | 72 | 248 | 1.0 | 6.0 | 0.00 | 0.16 | 0.00 | 83 | 1008.7 |
| 20260507174601 | 70 | 238 | 1.0 | 6.0 | 0.00 | 0.26 | 0.00 | 82 | 1008.9 |
| 20260507173048 | 70 | 0 | 0.0 | 2.0 | 0.00 | 0.26 | 0.00 | 88 | 1008.7 |
| 20260507171550 | 68 | 211 | 0.0 | 6.0 | 0.00 | 0.26 | 0.00 | 88 | 1009.0 |
| 20260507170134 | 68 | 0 | 1.0 | 5.0 | 0.00 | 0.26 | 0.00 | 89 | 1009.2 |
| 20260507164553 | 68 | 196 | 0.0 | 2.0 | 0.00 | 0.26 | 0.00 | 91 | 1009.0 |
| 20260507163052 | 68 | 221 | 0.0 | 1.0 | 0.00 | 0.26 | 0.00 | 91 | 1009.1 |
| 20260507161552 | 67 | 205 | 1.0 | 3.0 | 0.00 | 0.26 | 0.00 | 92 | 1009.8 |
| 20260507160110 | 67 | 0 | 0.0 | 1.0 | 0.00 | 0.26 | 0.00 | 93 | 1008.7 |
| 20260507154548 | 67 | 86 | 0.0 | 1.0 | 0.00 | 0.26 | 0.00 | 93 | 1008.6 |
| 20260507153047 | 66 | 0 | 0.0 | 1.0 | 0.00 | 0.26 | 0.00 | 94 | 1008.4 |
| 20260507151557 | 65 | 0 | 0.0 | 1.0 | 0.00 | 0.26 | 0.00 | 94 | 1009.1 |
| 20260507150043 | 65 | 0 | 0.0 | 3.0 | 0.00 | 0.26 | 0.00 | 94 | 1009.3 |
| 20260507144548 | 65 | 0 | 0.0 | 1.0 | 0.00 | 0.26 | 0.00 | 94 | 1010.1 |
| 20260507143049 | 65 | 229 | 1.0 | 4.0 | 0.00 | 0.26 | 0.00 | 94 | 1010.1 |
| 20260507141547 | 65 | 220 | 0.0 | 2.0 | 0.00 | 0.26 | 0.00 | 94 | 1009.8 |
| 20260507140048 | 65 | 223 | 0.0 | 0.0 | 0.00 | 0.26 | 0.00 | 95 | 1009.3 |
| 20260507134550 | 64 | 229 | 0.0 | 3.0 | 0.00 | 0.26 | 0.00 | 95 | 1009.3 |
| 20260507133056 | 64 | 134 | 0.0 | 1.0 | 0.00 | 0.26 | 0.00 | 95 | 1009.2 |
| 20260507131612 | 64 | 0 | 0.0 | 0.0 | 0.00 | 0.26 | 0.00 | 95 | 1009.4 |
| 20260507130050 | 64 | 0 | 0.0 | 1.0 | 0.00 | 0.26 | 0.00 | 94 | 1009.5 |
| 20260507124600 | 64 | 0 | 0.0 | 1.0 | 0.00 | 0.26 | 0.00 | 95 | 1010.0 |
| 20260507123051 | 64 | 0 | 0.0 | 4.0 | 0.00 | 0.26 | 0.00 | 95 | 1010.4 |
| 20260507121549 | 64 | 238 | 0.0 | 2.0 | 0.00 | 0.26 | 0.00 | 95 | 1011.3 |
| 20260507120051 | 64 | 234 | 0.0 | 1.0 | 0.00 | 0.26 | 0.00 | 95 | 1010.2 |
| 20260507114540 | 64 | 0 | 0.0 | 1.0 | 0.00 | 0.26 | 0.00 | 95 | 1009.9 |
| 20260507113122 | 64 | 163 | 0.0 | 1.0 | 0.00 | 0.26 | 0.00 | 95 | 1009.8 |
| 20260507111545 | 64 | 254 | 1.0 | 4.0 | 0.00 | 0.26 | 0.00 | 95 | 1010.1 |
| 20260507110048 | 64 | 0 | 0.0 | 1.0 | 0.00 | 0.26 | 0.00 | 95 | 1009.7 |
| 20260507104559 | 64 | 0 | 0.0 | 0.0 | 0.00 | 0.26 | 0.00 | 95 | 1009.9 |
| 20260507103049 | 64 | 0 | 0.0 | 0.0 | 0.00 | 0.26 | 0.00 | 95 | 1009.9 |
| 20260507101544 | 64 | 0 | 0.0 | 0.0 | 0.00 | 0.26 | 0.00 | 95 | 1009.8 |
| 20260507100054 | 63 | 0 | 0.0 | 1.0 | 0.00 | 0.26 | 0.00 | 95 | 1009.9 |
| 20260507094543 | 64 | 0 | 0.0 | 1.0 | 0.00 | 0.26 | 0.00 | 95 | 1009.5 |
| 20260507093050 | 63 | 0 | 0.0 | 1.0 | 0.00 | 0.26 | 0.00 | 95 | 1009.8 |
| 20260507091550 | 63 | 0 | 0.0 | 3.0 | 0.00 | 0.26 | 0.00 | 95 | 1010.0 |
| 20260507090047 | 63 | 146 | 0.0 | 3.0 | 0.00 | 0.26 | 0.00 | 95 | 1009.6 |
| 20260507084556 | 63 | 138 | 0.0 | 2.0 | 0.00 | 0.26 | 0.00 | 95 | 1009.9 |
| 20260507083044 | 63 | 0 | 0.0 | 2.0 | 0.00 | 0.26 | 0.00 | 95 | 1009.7 |
| 20260507081551 | 63 | 0 | 0.0 | 2.0 | 0.00 | 0.26 | 0.00 | 94 | 1009.7 |
| 20260507080052 | 63 | 0 | 0.0 | 1.0 | 0.00 | 0.26 | 0.00 | 94 | 1009.9 |
| 20260507074548 | 63 | 0 | 0.0 | 0.0 | 0.00 | 0.26 | 0.00 | 94 | 1009.9 |
| 20260507073044 | 63 | 0 | 0.0 | 2.0 | 0.00 | 0.26 | 0.00 | 94 | 1010.2 |
| 20260507071546 | 63 | 115 | 0.0 | 2.0 | 0.00 | 0.26 | 0.00 | 94 | 1010.8 |
| 20260507070054 | 63 | 0 | 0.0 | 1.0 | 0.00 | 0.26 | 0.00 | 94 | 1011.2 |
| 20260507064550 | 63 | 115 | 0.0 | 1.0 | 0.00 | 0.26 | 0.00 | 94 | 1011.2 |
| 20260507063053 | 63 | 0 | 0.0 | 1.0 | 0.00 | 0.26 | 0.00 | 94 | 1011.7 |
| 20260507061547 | 63 | 0 | 0.0 | 0.0 | 0.00 | 0.26 | 0.00 | 94 | 1012.1 |
| 20260507060046 | 63 | 102 | 0.0 | 1.0 | 0.00 | 0.26 | 0.00 | 94 | 1011.4 |
| 20260507054544 | 63 | 0 | 0.0 | 1.0 | 0.00 | 0.26 | 0.00 | 94 | 1012.3 |
| 20260507053040 | 64 | 0 | 0.0 | 0.0 | 0.00 | 0.26 | 0.00 | 94 | 1012.8 |
| 20260507051541 | 64 | 0 | 0.0 | 1.0 | 0.00 | 0.26 | 0.00 | 94 | 1012.3 |
| 20260507050100 | 64 | 0 | 0.0 | 3.0 | 0.00 | 0.26 | 0.00 | 94 | 1011.7 |
| 20260507044552 | 64 | 0 | 0.0 | 2.0 | 0.00 | 0.26 | 0.00 | 94 | 1011.4 |
| 20260507043044 | 64 | 211 | 0.0 | 4.0 | 0.00 | 0.26 | 0.00 | 94 | 1012.0 |
| 20260507041545 | 64 | 265 | 0.0 | 4.0 | 0.00 | 0.26 | 0.00 | 93 | 1012.4 |
| 20260507040045 | 64 | 117 | 1.0 | 5.0 | 0.00 | 0.26 | 0.00 | 93 | 1012.7 |
| 20260507034546 | 63 | 199 | 0.0 | 4.0 | 0.00 | 0.26 | 0.26 | 93 | 1012.1 |
| 20260507033049 | 64 | 148 | 0.0 | 3.0 | 0.00 | 0.26 | 0.26 | 93 | 1011.2 |
| 20260507031545 | 64 | 0 | 0.0 | 1.0 | 0.00 | 0.26 | 0.26 | 93 | 1013.9 |
| 20260507030045 | 64 | 0 | 0.0 | 2.0 | 0.00 | 0.26 | 0.26 | 92 | 1014.0 |
| 20260507024546 | 64 | 240 | 0.0 | 1.0 | 0.08 | 0.26 | 0.26 | 92 | 1013.7 |
| 20260507023040 | 64 | 0 | 0.0 | 1.0 | 0.11 | 0.26 | 0.26 | 91 | 1013.4 |
| 20260507021555 | 65 | 0 | 0.0 | 5.0 | 0.11 | 0.26 | 0.26 | 91 | 1013.4 |
| 20260507020048 | 66 | 272 | 1.0 | 3.0 | 0.12 | 0.25 | 0.25 | 90 | 1013.9 |
| 20260507014547 | 66 | 211 | 1.0 | 5.0 | 0.05 | 0.18 | 0.18 | 90 | 1013.2 |
| 20260507013044 | 67 | 234 | 0.0 | 1.0 | 0.03 | 0.15 | 0.15 | 90 | 1012.7 |
| 20260507011545 | 68 | 236 | 1.0 | 9.0 | 0.04 | 0.15 | 0.15 | 89 | 1012.5 |
| 20260507010045 | 68 | 252 | 2.0 | 4.0 | 0.03 | 0.13 | 0.13 | 89 | 1012.5 |
| 20260507004540 | 69 | 233 | 0.0 | 1.0 | 0.03 | 0.13 | 0.13 | 89 | 1012.4 |
| 20260507003049 | 70 | 0 | 0.0 | 1.0 | 0.02 | 0.12 | 0.12 | 87 | 1012.4 |
| 20260507001541 | 71 | 200 | 0.0 | 1.0 | 0.01 | 0.11 | 0.11 | 84 | 1012.4 |
| 20260507000042 | 72 | 0 | 0.0 | 0.0 | 0.00 | 0.10 | 0.10 | 79 | 1011.7 |
| 20260506234550 | 73 | 0 | 0.0 | 0.0 | 0.00 | 0.10 | 0.10 | 78 | 1012.0 |
| 20260506233047 | 74 | 0 | 0.0 | 0.0 | 0.00 | 0.10 | 0.10 | 77 | 1011.9 |
| 20260506231539 | 74 | 0 | 0.0 | 1.0 | 0.00 | 0.10 | 0.10 | 75 | 1011.9 |
| 20260506230046 | 75 | 0 | 0.0 | 1.0 | 0.00 | 0.10 | 0.10 | 73 | 1011.8 |
| 20260506224546 | 75 | 215 | 0.0 | 3.0 | 0.00 | 0.10 | 0.10 | 73 | 1011.9 |
| 20260506223047 | 75 | 207 | 0.0 | 4.0 | 0.00 | 0.10 | 0.10 | 74 | 1012.0 |